Dewpoint
28 24 21 22 21 21 21 20 20 22 23 21 20 20 19 21 23 24 30 28 31 32 30 31 37 37 45 46 48 48 47 47 48 48 48 49 49 51 52 53 53 53 53 53
26 24 23 23 24 22 21 19 18 19 21 21 21 21 22 24 24 27 28 30 32 33 30 30 31 33 42 45 46 46 47 47 48 49 51 51 52 52 52 53 53 53 53 53
21 23 23 23 22 19 19 17 17 18 22 22 21 17 15 21 27 29 30 32 34 33 34 32 30 32 35 42 44 45 46 47 48 50 52 52 52 52 52 52 53 53 53 53
23 23 22 21 20 19 12 21 22 21 21 19 21 15 14 12 23 26 29 32 34 34 33 34 32 31 32 39 41 43 45 47 49 51 51 50 50 49 51 51 52 52 53 52
20 22 20 15 21 22 15 23 23 24 21 22 20 17 17 12 13 23 29 32 35 36 35 35 35 35 35 40 42 43 45 47 49 50 51 51 50 50 51 51 51 52 52 52
22 26 21 18 24 24 23 23 26 24 23 19 21 15 17 11 10 21 27 32 35 36 37 38 38 39 40 41 44 45 46 47 48 48 49 50 50 50 49 49 50 51 51 51
20 22 23 26 20 25 23 24 20 20 19 19 21 15 19 13 21 23 28 31 29 26 29 33 37 41 42 42 43 44 45 46 46 47 48 49 49 49 49 49 49 49 50 50
18 21 22 25 19 19 19 24 19 11 16 19 22 18 19 17 24 23 22 21 23 25 26 26 27 31 36 39 41 43 44 45 46 46 47 48 48 48 48 48 49 50 50 50
17 21 19 20 22 22 21 22 24 21 19 18 22 22 15 17 18 18 15 21 23 25 26 24 25 25 25 26 31 39 42 43 44 44 45 46 46 45 46 47 49 50 50 50
16 19 21 22 24 26 23 25 18 22 15 18 20 20 22 14 15 17 15 18 20 23 25 24 24 25 26 25 27 30 36 41 42 43 43 44 44 44 44 45 45 47 49 50
18 21 22 24 22 24 24 21 21 22 23 18 13 21 24 12 16 16 19 22 22 21 23 24 26 27 28 29 29 30 30 31 34 38 41 43 43 44 44 44 44 45 47 48
21 21 20 24 25 21 21 22 22 20 18 21 20 22 26 19 18 22 26 25 26 26 24 24 26 28 28 29 29 30 32 32 33 35 37 39 42 44 44 44 45 45 45 47
26 24 17 18 21 25 20 20 20 26 25 20 19 19 22 24 23 24 25 25 25 27 22 24 28 28 29 29 29 29 30 31 33 34 35 34 36 39 42 43 44 45 45 46
33 26 24 18 16 26 25 26 24 21 23 21 22 21 22 23 24 25 27 23 24 26 27 29 29 29 30 30 30 29 29 30 32 33 34 34 34 35 36 40 43 44 45 45
26 20 24 26 27 25 25 24 25 24 24 23 21 22 23 24 26 27 26 26 27 29 30 30 30 30 30 30 30 30 30 30 30 31 33 33 34 34 36 38 41 44 45 45
25 21 19 19 25 25 25 25 25 25 26 25 25 25 27 28 29 28 28 29 30 30 30 30 29 29 30 31 30 30 30 31 31 31 32 32 33 34 35 36 38 40 43 44
26 26 24 22 25 24 17 21 22 24 26 25 24 26 30 29 29 29 29 30 30 30 29 28 29 29 31 31 29 30 31 31 32 33 33 33 33 33 34 35 36 37 40 42
27 24 28 23 25 12 17 24 24 23 28 29 30 30 30 29 30 31 30 31 28 27 28 29 30 30 32 30 32 33 34 34 35 34 34 34 34 34 34 34 35 36 37 40
31 28 25 24 20 21 21 22 20 22 26 30 29 30 28 30 32 29 33 29 28 28 29 31 31 32 30 32 34 34 34 34 34 34 34 34 34 34 34 34 35 36 37 38
27 31 28 26 22 17 18 20 21 21 20 26 29 26 27 31 26 26 33 30 29 28 31 31 31 32 34 33 34 35 35 34 34 34 34 34 34 33 33 33 34 35 36 37
17 19 25 24 23 23 26 23 23 20 21 27 27 28 29 28 30 31 32 30 29 31 30 30 33 32 32 33 34 35 35 34 34 35 35 34 34 33 32 31 32 32 34 35
19 17 18 22 23 18 19 21 22 27 29 25 27 29 29 29 29 29 30 30 31 31 30 30 32 31 32 35 36 35 34 35 35 35 34 34 33 33 32 32 32 32 32 35
16 21 20 23 21 24 22 24 23 20 20 26 26 26 27 28 28 29 30 31 30 28 27 29 28 29 33 33 33 33 34 35 35 34 34 34 33 33 33 32 33 33 33 34
19 21 19 18 17 18 20 21 18 24 25 25 25 26 28 29 31 31 31 28 26 25 26 25 26 27 29 26 25 26 31 32 33 33 33 34 34 34 34 33 33 34 33 33
21 22 21 20 20 18 14 14 17 20 24 25 27 30 30 30 29 28 26 25 24 25 23 23 23 22 23 21 20 21 23 26 29 31 32 33 32 34 34 34 34 34 34 35
21 20 18 17 15 14 15 19 21 21 21 25 30 28 28 29 28 25 23 22 23 21 21 22 22 21 20 19 20 21 22 23 24 24 28 31 32 34 34 34 33 36 38 39
Lifted_Index
7 6 5 6 7 7 7 6 6 8 9 8 6 6 8 9 10 10 11 11 11 12 12 12 11 10 9 7 4 3 2 1 0 1 1 2 2 2 1 1 1 2 3 4
6 6 7 8 8 8 7 7 6 7 8 7 6 6 7 9 10 11 11 11 11 11 12 12 11 11 9 7 5 4 2 1 1 1 1 2 2 1 1 1 1 2 3 3
6 7 8 8 8 8 8 7 7 6 6 6 6 5 6 8 10 10 11 11 11 11 11 11 11 11 10 9 7 5 4 3 2 2 2 2 1 1 1 1 1 2 3 3
7 8 8 8 8 8 7 7 7 6 6 5 5 5 5 7 9 10 11 11 10 10 10 10 11 11 10 9 8 6 5 4 3 3 2 1 1 1 1 1 1 2 3 3
7 8 7 7 8 8 7 7 7 7 6 5 5 5 5 6 8 9 10 10 10 9 9 9 9 9 10 9 8 7 6 5 4 3 2 2 2 1 1 1 2 2 3 4
7 8 7 7 8 8 8 7 6 6 5 4 5 5 5 6 8 9 10 10 10 9 9 9 9 8 8 8 8 8 7 6 6 5 4 3 3 3 3 3 3 3 3 4
6 7 7 8 8 8 8 7 5 3 2 3 5 5 5 6 8 9 10 10 10 10 10 10 10 9 8 8 8 8 7 7 7 6 5 5 4 4 4 4 4 4 4 4
5 6 7 8 8 8 8 7 5 3 2 3 5 5 5 7 8 9 10 10 10 10 10 11 11 10 10 10 10 9 8 8 8 7 7 6 6 5 5 6 6 5 5 5
5 6 7 8 8 8 8 7 6 5 3 3 4 4 5 6 8 9 9 9 9 10 10 10 10 10 10 10 10 10 9 8 8 8 8 8 7 7 7 7 7 7 6 6
7 7 7 8 8 8 8 7 6 5 3 2 3 4 5 6 7 8 8 9 9 9 9 9 9 9 9 10 10 10 9 9 9 9 9 9 8 8 8 8 8 8 8 7
8 7 7 7 8 8 7 6 6 5 4 2 2 3 5 6 7 8 8 8 9 9 9 9 9 9 9 10 10 10 10 10 10 10 10 10 9 9 9 9 9 9 9 9
8 7 6 6 7 8 7 7 6 6 5 4 3 4 6 7 7 8 8 8 9 9 10 10 10 10 10 10 11 11 11 11 11 11 11 11 11 10 10 10 10 10 10 9
9 8 6 6 7 8 8 7 7 7 6 5 4 4 6 7 7 8 8 9 9 9 10 10 10 10 10 10 11 12 12 12 12 12 12 12 12 11 11 10 10 10 10 10
9 8 7 6 7 8 8 8 7 7 6 5 5 5 6 7 7 8 8 8 9 9 9 10 10 10 10 10 11 12 13 13 13 13 13 12 12 12 12 11 11 11 11 11
8 8 7 7 8 8 8 7 7 6 5 5 5 6 7 7 7 7 8 8 8 9 9 9 9 9 10 11 12 13 13 13 13 13 13 13 13 13 13 12 12 11 10 10
8 8 7 7 7 7 7 6 6 6 6 6 6 6 6 7 7 7 7 8 8 8 8 8 9 9 10 11 12 12 13 13 13 13 13 13 13 13 13 13 13 12 11 11
9 8 7 6 6 6 6 6 6 6 6 6 6 6 6 6 6 7 7 7 8 8 8 9 9 10 11 11 12 12 12 13 13 13 13 13 13 13 13 13 13 12 12 12
9 8 7 6 6 5 6 7 7 6 6 6 6 6 6 6 6 6 7 7 8 8 9 9 9 10 11 11 11 12 12 12 12 13 13 13 13 13 13 13 13 13 12 12
8 8 7 6 5 5 6 7 6 6 6 6 6 6 6 6 6 6 6 7 7 8 8 9 9 9 10 10 11 11 11 11 12 12 12 12 12 12 12 12 12 12 12 12
8 7 6 6 5 5 6 6 5 5 5 5 5 5 6 6 6 6 7 7 7 8 8 8 8 9 9 10 10 10 10 10 11 11 12 11 11 11 11 11 11 11 12 12
7 7 6 5 5 5 5 5 5 5 5 5 6 6 6 7 7 7 7 7 7 7 7 8 8 9 9 9 9 9 9 10 11 11 12 11 11 10 10 10 10 10 11 11
7 7 6 5 5 5 4 5 5 5 6 6 7 7 7 7 7 8 7 7 7 7 8 8 8 9 9 9 9 9 9 10 10 11 11 11 10 9 9 9 9 9 10 10
7 7 6 6 5 4 4 4 5 6 6 7 7 7 7 7 7 7 7 7 7 7 8 8 9 9 9 9 9 9 10 10 10 10 11 11 10 9 8 8 8 8 9 9
9 8 7 7 6 6 5 6 6 6 6 6 6 6 6 6 6 6 7 7 7 8 8 8 9 9 9 9 9 10 10 10 10 10 10 10 10 9 8 8 8 8 8 8
9 8 7 8 8 7 8 8 7 7 6 5 5 5 5 5 6 6 7 7 7 8 8 8 8 8 8 9 9 9 9 9 9 9 9 9 9 8 8 7 7 7 7 7
8 8 8 8 9 8 9 8 7 7 6 5 4 4 4 5 5 6 7 7 7 7 7 7 7 7 8 8 8 8 9 9 9 9 8 8 8 7 7 7 6 6 7 7